Overview Statistics Trail Chart Weather Telemetry Raw packets
 

This is the latest recevied weather packets stored in our database for station/object OK0BH-6. If no packets are shown the sender has not sent any weather packets the latest 10 day(s).

<< 1 2 3 4 >>
Time Temp. Humidity Pressure Rain* Wind** Luminosity Snow
1788579907 18.89° C 40% 1017.3 hPa - - - -
1788579328 18.89° C 40% 1017 hPa - - - -
1788578753 18.89° C 40% 1017 hPa - - - -
1788578178 18.89° C 40% 1016.6 hPa - - - -
1788577604 19.44° C 40% 1016.3 hPa - - - -
1788577029 19.44° C 40% 1016.1 hPa - - - -
1788576454 19.44° C 40% 1016.2 hPa - - - -
1788575879 19.44° C 39% 1016.2 hPa - - - -
1788575304 20° C 39% 1015.9 hPa - - - -
1788574729 20° C 39% 1016 hPa - - - -
1788574154 20.56° C 38% 1015.6 hPa - - - -
1788573579 21.67° C 37% 1015.5 hPa - - - -
1788573005 22.78° C 36% 1015.3 hPa - - - -
1788572456 25° C 35% 1014.9 hPa - - - -
1788571855 25.56° C 35% 1014.2 hPa - - - -
1788571280 25.56° C 35% 1013.9 hPa - - - -
1788570705 26.11° C 35% 1014 hPa - - - -
1788570130 26.11° C 35% 1013.5 hPa - - - -
1788569555 26.11° C 35% 1013.4 hPa - - - -
1788568980 26.11° C 35% 1013.5 hPa - - - -
1788568406 26.67° C 34% 1013.2 hPa - - - -
1788567831 26.67° C 35% 1013.2 hPa - - - -
1788567263 26.67° C 35% 1013.3 hPa - - - -
1788566681 26.67° C 35% 1013.3 hPa - - - -
1788566106 26.67° C 34% 1012.8 hPa - - - -

* Rain since midnight (hover to see other rain measurements)
** Current wind speed in m/s (hover to see current wind gust speed)